When you browse on this site, cookies collect data to enhance your experience and personalize the content and advertising you see.
Visit our Privacy Policy to learn more. By continuing to use the site, you agree to this use of cookies and data.
  • Em Portugal
  • Lista de países
  • Para 7 dias
  • Temperatura da água
  • Mapa do tempo
  • Widgets de tempo
  • user-avatar
    Iniciar Sessão

    Previsão horária em Inverclaide

    Hoje, 22 Setembro, Domingo

    Tempo Temperatura Precipitação Vento Pressão Humidade
    00:00 +12°C° 0 mm 1 m/s 753 mmHg 89%
    01:00 +12°C° 0 mm 1 m/s 752 mmHg 89%
    02:00 +11°C° 0 mm 1 m/s 752 mmHg 89%
    03:00 +11°C° 0 mm 1 m/s 751 mmHg 89%
    04:00 +11°C° 0 mm 1 m/s 751 mmHg 88%
    05:00 +11°C° 0 mm 1 m/s 751 mmHg 87%
    06:00 +12°C° 0 mm 1 m/s 751 mmHg 86%
    07:00 +13°C° 0 mm 1 m/s 751 mmHg 81%
    08:00 +15°C° 0 mm 1 m/s 750 mmHg 77%
    09:00 +16°C° 0 mm 1 m/s 750 mmHg 73%
    10:00 +19°C° 0 mm 1 m/s 750 mmHg 70%
    11:00 +19°C° 0 mm 2 m/s 750 mmHg 68%
    12:00 +21°C° 0 mm 2 m/s 750 mmHg 66%
    13:00 +20°C° 0 mm 2 m/s 749 mmHg 69%
    14:00 +20°C° 0 mm 2 m/s 749 mmHg 73%
    15:00 +20°C° 0 mm 2 m/s 749 mmHg 76%
    16:00 +19°C° 0.3 mm 2 m/s 749 mmHg 82%
    17:00 +19°C° 0.3 mm 1 m/s 749 mmHg 88%
    18:00 +18°C° 0.3 mm 1 m/s 749 mmHg 94%
    19:00 +18°C° 0.4 mm 1 m/s 749 mmHg 95%
    20:00 +18°C° 0.4 mm 1 m/s 749 mmHg 96%
    21:00 +16°C° 0.4 mm 1 m/s 749 mmHg 97%
    22:00 +16°C° 0.2 mm 1 m/s 749 mmHg 97%
    23:00 +16°C° 0.2 mm 1 m/s 750 mmHg 97%

    Amanhã, 23 Setembro, Segunda-feira

    Tempo Temperatura Precipitação Vento Pressão Humidade
    00:00 +16°C° 0.2 mm 1 m/s 750 mmHg 98%
    01:00 +16°C° 1.2 mm 1 m/s 750 mmHg 98%
    02:00 +16°C° 1.2 mm 1 m/s 749 mmHg 98%
    03:00 +15°C° 1.2 mm 1 m/s 749 mmHg 98%
    04:00 +15°C° 0.3 mm 1 m/s 749 mmHg 98%
    05:00 +15°C° 0.3 mm 1 m/s 749 mmHg 98%
    06:00 +15°C° 0.3 mm 2 m/s 750 mmHg 97%
    07:00 +15°C° 0.1 mm 2 m/s 750 mmHg 96%
    08:00 +16°C° 0.1 mm 2 m/s 750 mmHg 95%
    09:00 +16°C° 0.1 mm 2 m/s 750 mmHg 93%
    10:00 +17°C° 0.1 mm 2 m/s 750 mmHg 88%
    11:00 +19°C° 0.1 mm 1 m/s 750 mmHg 83%
    12:00 +20°C° 0.1 mm 1 m/s 750 mmHg 78%
    13:00 +19°C° 0.5 mm 2 m/s 750 mmHg 78%
    14:00 +19°C° 0.5 mm 2 m/s 750 mmHg 78%
    15:00 +19°C° 0.5 mm 3 m/s 750 mmHg 78%
    16:00 +18°C° 0.4 mm 2 m/s 750 mmHg 82%
    17:00 +17°C° 0.4 mm 2 m/s 750 mmHg 86%
    18:00 +15°C° 0.4 mm 1 m/s 750 mmHg 91%
    19:00 +15°C° 0 mm 1 m/s 750 mmHg 91%
    20:00 +14°C° 0 mm 1 m/s 750 mmHg 92%
    21:00 +13°C° 0 mm 1 m/s 750 mmHg 93%
    22:00 +13°C° 0 mm 1 m/s 749 mmHg 92%
    23:00 +13°C° 0 mm 1 m/s 749 mmHg 92%

    Depois de amanhã, 24 Setembro, Terça-feira

    Tempo Temperatura Precipitação Vento Pressão Humidade
    00:00 +13°C° 0 mm 1 m/s 749 mmHg 91%
    01:00 +13°C° 0 mm 1 m/s 748 mmHg 91%
    02:00 +13°C° 0 mm 1 m/s 748 mmHg 91%
    03:00 +13°C° 0 mm 2 m/s 748 mmHg 90%
    04:00 +13°C° 0 mm 1 m/s 747 mmHg 92%
    05:00 +13°C° 0 mm 1 m/s 747 mmHg 93%
    06:00 +12°C° 0 mm 1 m/s 747 mmHg 95%
    07:00 +13°C° 0 mm 1 m/s 746 mmHg 94%
    08:00 +14°C° 0 mm 1 m/s 746 mmHg 93%
    09:00 +15°C° 0 mm 1 m/s 746 mmHg 91%
    10:00 +16°C° 0 mm 1 m/s 746 mmHg 88%
    11:00 +17°C° 0 mm 2 m/s 746 mmHg 85%
    12:00 +18°C° 0 mm 2 m/s 746 mmHg 81%
    13:00 +18°C° 0 mm 2 m/s 746 mmHg 82%
    14:00 +18°C° 0 mm 2 m/s 745 mmHg 83%
    15:00 +18°C° 0 mm 2 m/s 745 mmHg 84%
    16:00 +17°C° 0 mm 2 m/s 745 mmHg 88%
    17:00 +16°C° 0 mm 2 m/s 745 mmHg 91%
    18:00 +15°C° 0 mm 2 m/s 745 mmHg 95%
    19:00 +15°C° 0 mm 2 m/s 745 mmHg 95%
    20:00 +15°C° 0 mm 2 m/s 745 mmHg 96%
    21:00 +15°C° 0 mm 2 m/s 745 mmHg 96%
    22:00 +15°C° 0 mm 2 m/s 745 mmHg 96%
    23:00 +15°C° 0 mm 2 m/s 745 mmHg 97%

    25 Setembro, Quarta-feira

    Tempo Temperatura Precipitação Vento Pressão Humidade
    00:00 +15°C° 0 mm 2 m/s 745 mmHg 97%
    01:00 +15°C° 0 mm 2 m/s 745 mmHg 98%
    02:00 +15°C° 0 mm 2 m/s 745 mmHg 98%
    03:00 +15°C° 0 mm 2 m/s 745 mmHg 98%
    04:00 +14°C° 0 mm 3 m/s 745 mmHg 98%
    05:00 +14°C° 0 mm 3 m/s 745 mmHg 97%
    06:00 +14°C° 0 mm 3 m/s 745 mmHg 97%
    07:00 +14°C° 0.1 mm 3 m/s 745 mmHg 96%
    08:00 +14°C° 0.1 mm 3 m/s 745 mmHg 96%
    09:00 +14°C° 0.1 mm 3 m/s 745 mmHg 95%
    10:00 +14°C° 0 mm 3 m/s 745 mmHg 92%
    11:00 +16°C° 0 mm 3 m/s 745 mmHg 90%
    12:00 +16°C° 0 mm 3 m/s 745 mmHg 87%
    13:00 +17°C° 0.1 mm 3 m/s 745 mmHg 84%
    14:00 +17°C° 0.1 mm 3 m/s 745 mmHg 82%
    15:00 +18°C° 0.1 mm 3 m/s 744 mmHg 80%
    16:00 +17°C° 0.1 mm 3 m/s 744 mmHg 82%
    17:00 +16°C° 0.1 mm 3 m/s 744 mmHg 85%
    18:00 +14°C° 0.1 mm 3 m/s 744 mmHg 87%
    19:00 +14°C° 0 mm 3 m/s 744 mmHg 89%
    20:00 +14°C° 0 mm 3 m/s 743 mmHg 90%
    21:00 +13°C° 0 mm 3 m/s 743 mmHg 91%
    22:00 +13°C° 0 mm 4 m/s 742 mmHg 90%
    23:00 +13°C° 0 mm 4 m/s 742 mmHg 90%

    26 Setembro, Quinta-feira

    Tempo Temperatura Precipitação Vento Pressão Humidade
    00:00 +13°C° 0 mm 4 m/s 741 mmHg 89%
    01:00 +13°C° 1.1 mm 4 m/s 741 mmHg 90%
    02:00 +14°C° 1.1 mm 4 m/s 741 mmHg 90%
    03:00 +14°C° 1.1 mm 4 m/s 740 mmHg 91%
    04:00 +13°C° 1.2 mm 3 m/s 740 mmHg 92%
    05:00 +14°C° 1.2 mm 2 m/s 740 mmHg 94%
    06:00 +13°C° 1.2 mm 1 m/s 740 mmHg 95%
    07:00 +14°C° 0 mm 2 m/s 740 mmHg 91%
    08:00 +15°C° 0 mm 2 m/s 741 mmHg 87%
    09:00 +15°C° 0 mm 2 m/s 741 mmHg 83%
    10:00 +16°C° 0 mm 2 m/s 741 mmHg 77%
    11:00 +17°C° 0 mm 2 m/s 742 mmHg 70%
    12:00 +18°C° 0 mm 3 m/s 742 mmHg 63%
    13:00 +18°C° 0.1 mm 3 m/s 742 mmHg 64%
    14:00 +18°C° 0.1 mm 3 m/s 742 mmHg 65%
    15:00 +18°C° 0.1 mm 2 m/s 742 mmHg 66%
    16:00 +16°C° 0.1 mm 2 m/s 742 mmHg 72%
    17:00 +15°C° 0.1 mm 2 m/s 742 mmHg 77%
    18:00 +14°C° 0.1 mm 1 m/s 742 mmHg 83%
    19:00 +14°C° 0 mm 1 m/s 742 mmHg 84%
    20:00 +13°C° 0 mm 1 m/s 743 mmHg 86%
    21:00 +13°C° 0 mm 1 m/s 743 mmHg 88%
    22:00 +12°C° 0 mm 1 m/s 743 mmHg 89%
    23:00 +12°C° 0 mm 1 m/s 743 mmHg 90%

    27 Setembro, Sexta-feira

    Tempo Temperatura Precipitação Vento Pressão Humidade
    00:00 +12°C° 0 mm 1 m/s 743 mmHg 91%
    01:00 +12°C° 0 mm 1 m/s 743 mmHg 91%
    02:00 +11°C° 0 mm 1 m/s 743 mmHg 91%
    03:00 +11°C° 0 mm 1 m/s 743 mmHg 92%
    04:00 +11°C° 0 mm 1 m/s 743 mmHg 92%
    05:00 +10°C° 0 mm 1 m/s 743 mmHg 93%
    06:00 +10°C° 0 mm 1 m/s 743 mmHg 94%
    07:00 +11°C° 0 mm 1 m/s 743 mmHg 90%
    08:00 +12°C° 0 mm 1 m/s 743 mmHg 87%
    09:00 +13°C° 0 mm 1 m/s 743 mmHg 83%
    10:00 +14°C° 0 mm 2 m/s 743 mmHg 79%
    11:00 +15°C° 0 mm 2 m/s 743 mmHg 74%
    12:00 +16°C° 0 mm 3 m/s 743 mmHg 70%
    13:00 +16°C° 0.1 mm 3 m/s 743 mmHg 71%
    14:00 +16°C° 0.1 mm 3 m/s 743 mmHg 72%
    15:00 +16°C° 0.1 mm 3 m/s 743 mmHg 73%
    16:00 +15°C° 0.1 mm 2 m/s 743 mmHg 77%
    17:00 +14°C° 0.1 mm 2 m/s 743 mmHg 82%
    18:00 +13°C° 0.1 mm 2 m/s 742 mmHg 86%
    19:00 +12°C° 0 mm 2 m/s 742 mmHg 88%
    20:00 +12°C° 0 mm 2 m/s 742 mmHg 91%
    21:00 +10°C° 0 mm 2 m/s 742 mmHg 93%
    22:00 +10°C° 0.2 mm 2 m/s 741 mmHg 93%
    23:00 +11°C° 0.2 mm 3 m/s 741 mmHg 94%
    Mostrar mais